Waarnemingen

Advertentie
Mijn weer
Laupheim, Duitsland (10837): temperatuur & dauwpunt: 20.09.2017 14:00:00 - 26.09.2017 14:00:00 (CEST)Laupheim, Duitsland (10837): windsnelheid: 20.09.2017 14:00:00 - 26.09.2017 14:00:00 (CEST)Laupheim, Duitsland (10837): windrichting: 20.09.2017 14:00:00 - 26.09.2017 14:00:00 (CEST)Laupheim, Duitsland (10837): luchtdruk: 20.09.2017 14:00:00 - 26.09.2017 14:00:00 (CEST)Laupheim, Duitsland (10837): zicht: 20.09.2017 14:00:00 - 26.09.2017 14:00:00 (CEST)
Datum & Tijd tt [°C] td [°C] ff [km/u] ff [kn] dd ppp [hPa] vv [km]
26.09.2017 14:00:00 17,4 10,4 7 4 NO 1020,1 15
26.09.2017 13:00:00 16,1 10,4 4 2 W 1020,6 15
26.09.2017 12:00:00 14,4 10,2 4 2 ZW 1021,2 10
26.09.2017 11:00:00 12,8 10,1 4 2 O 1021,7 8
26.09.2017 10:00:00 11,1 9,3 4 2 Z 1021,9 7
26.09.2017 09:00:00 9,0 8,2 4 2 ZZW 1022,2 6
26.09.2017 08:00:00 8,6 7,9 4 2 OZO 1021,9 5
26.09.2017 07:00:00 8,6 7,9 4 2 ZW 1021,6 5
26.09.2017 06:00:00 9,0 8,2 4 2 ZZO 1021,4 7
26.09.2017 05:00:00 9,1 8,2 4 2 ONO 1021,1 7
26.09.2017 04:00:00 9,2 8,2 4 2 ZW 1021,2 8
26.09.2017 03:00:00 9,2 8,3 4 2 N 1021,0 9
26.09.2017 02:00:00 9,6 8,4 4 2 ONO 1021,1 8
26.09.2017 01:00:00 8,9 8,0 4 2 N 1021,3 12
26.09.2017 00:00:00 9,1 8,0 4 2 ZZW 1021,2 12
25.09.2017 23:00:00 10,4 8,4 7 4 NNO 1020,7 18
25.09.2017 22:00:00 11,2 8,5 7 4 NO 1020,3 18
25.09.2017 21:00:00 12,8 8,7 7 4 O 1020,0 18
25.09.2017 20:00:00 12,9 8,8 7 4 ONO 1019,4 19
25.09.2017 19:00:00 15,4 8,5 7 4 O 1018,4 21
25.09.2017 18:00:00 16,7 8,6 11 6 ONO 1018,1 25
25.09.2017 17:00:00 17,0 7,7 11 6 ONO 1017,9 25
25.09.2017 16:00:00 17,2 8,7 11 6 O 1017,8 25
25.09.2017 15:00:00 16,3 8,6 4 2 N 1018,4 18
25.09.2017 14:00:00 16,6 9,5 11 6 OZO 1018,4 18
25.09.2017 13:00:00 15,6 9,9 18 10 O 1018,7 25
25.09.2017 12:00:00 13,6 9,3 7 4 ONO 1019,8 16
25.09.2017 11:00:00 10,8 9,0 7 4 NO 1021,1 10
25.09.2017 10:00:00 9,3 7,8 7 4 NO 1021,3 7
25.09.2017 09:00:00 7,9 7,1 4 2 W 1021,6 4,0
25.09.2017 08:00:00 6,0 5,6 4 2 OZO 1022,2 3,0
25.09.2017 07:00:00 5,7 5,3 2 1 NO 1022,0 -
25.09.2017 06:00:00 6,0 5,5 4 2 N 1021,8 3,0
25.09.2017 05:00:00 6,6 6,0 4 2 NNW 1021,6 0,7
25.09.2017 04:00:00 7,7 7,0 4 2 ONO 1021,6 8
25.09.2017 03:00:00 7,8 7,3 4 2 O 1022,0 8
25.09.2017 02:00:00 8,3 7,6 4 2 NO 1022,1 8
25.09.2017 01:00:00 9,2 8,4 4 2 O 1022,3 9
25.09.2017 00:00:00 9,3 8,1 4 2 O 1022,6 12
24.09.2017 23:00:00 10,3 8,9 4 2 W 1022,4 15
24.09.2017 22:00:00 10,7 8,6 4 2 NO 1022,3 15
24.09.2017 21:00:00 10,9 9,4 7 4 NNO 1022,2 15
24.09.2017 20:00:00 12,1 8,7 7 4 O 1021,5 9
24.09.2017 19:00:00 12,8 9,2 7 4 OZO 1021,5 10
24.09.2017 18:00:00 13,7 9,6 11 6 ZO 1020,9 10
24.09.2017 17:00:00 15,0 9,5 7 4 N 1020,4 14
24.09.2017 16:00:00 17,2 7,8 11 6 ONO 1019,7 20
24.09.2017 15:00:00 17,9 8,0 7 4 O 1019,6 15
24.09.2017 14:00:00 16,8 8,9 7 4 ONO 1020,1 14
24.09.2017 13:00:00 16,8 9,7 11 6 ONO 1020,4 12
24.09.2017 12:00:00 15,9 9,9 7 4 ONO 1021,0 12
24.09.2017 11:00:00 13,8 9,8 4 2 O 1021,7 8
24.09.2017 10:00:00 11,4 9,3 7 4 NO 1022,1 7
24.09.2017 09:00:00 10,3 8,8 4 2 NO 1021,8 5
24.09.2017 08:00:00 9,1 8,3 4 2 N 1021,6 4,7
24.09.2017 07:00:00 9,1 8,2 0 0 N 1021,4 4,7
24.09.2017 06:00:00 9,8 8,5 4 2 NO 1021,1 4,1
24.09.2017 05:00:00 10,2 8,7 4 2 NNO 1021,1 6
24.09.2017 04:00:00 10,8 8,8 4 2 NO 1020,8 6
24.09.2017 03:00:00 11,2 9,2 4 2 ONO 1020,7 6
24.09.2017 02:00:00 11,4 9,7 0 0 N 1021,1 7
24.09.2017 01:00:00 11,6 9,2 4 2 N 1021,2 7
24.09.2017 00:00:00 11,9 9,0 4 2 N 1021,1 8
23.09.2017 23:00:00 12,0 8,9 4 2 N 1021,3 8
23.09.2017 22:00:00 12,6 8,9 4 2 ONO 1021,3 8
23.09.2017 21:00:00 12,8 9,7 4 2 OZO 1021,2 8
23.09.2017 20:00:00 14,0 9,9 7 4 O 1020,8 10
23.09.2017 19:00:00 15,0 10,0 7 4 NO 1020,4 11
23.09.2017 18:00:00 16,8 9,1 11 6 NO 1019,8 13
23.09.2017 17:00:00 17,3 9,5 11 6 NO 1019,7 15
23.09.2017 16:00:00 18,2 8,4 7 4 NO 1019,9 13
23.09.2017 15:00:00 18,0 9,1 7 4 O 1020,4 16
23.09.2017 14:00:00 17,4 8,1 11 6 O 1020,7 17
23.09.2017 13:00:00 16,8 8,7 7 4 ONO 1021,5 20
23.09.2017 12:00:00 15,7 9,1 7 4 N 1022,2 13
23.09.2017 11:00:00 14,3 9,4 4 2 ZW 1022,8 9
23.09.2017 10:00:00 11,2 9,2 7 4 W 1023,4 8
23.09.2017 09:00:00 9,2 8,4 4 2 N 1023,7 6
23.09.2017 08:00:00 7,0 6,5 7 4 ZW 1024,0 5
23.09.2017 07:00:00 7,2 6,7 7 4 ZW 1023,9 0,5
23.09.2017 06:00:00 7,6 7,0 4 2 ZZW 1023,9 6
23.09.2017 05:00:00 7,6 7,0 4 2 N 1024,1 1,0
23.09.2017 04:00:00 8,6 7,9 4 2 ZZW 1023,9 6
23.09.2017 03:00:00 9,0 8,4 4 2 W 1024,0 7
23.09.2017 02:00:00 8,7 8,0 4 2 Z 1024,1 7
23.09.2017 01:00:00 9,5 8,6 4 2 W 1023,6 8
23.09.2017 00:00:00 9,9 9,0 4 2 NNW 1023,4 8
22.09.2017 23:00:00 10,6 9,9 4 2 ONO 1022,9 4,0
22.09.2017 22:00:00 11,0 9,3 4 2 NO 1022,5 8
22.09.2017 21:00:00 14,1 9,2 7 4 O 1021,6 12
22.09.2017 20:00:00 14,9 10,0 7 4 ONO 1021,0 20
22.09.2017 19:00:00 16,3 9,5 4 2 N 1020,1 20
22.09.2017 18:00:00 19,0 7,6 4 2 N 1019,4 20
22.09.2017 17:00:00 19,3 8,1 7 4 N 1019,2 20
22.09.2017 16:00:00 18,9 7,5 11 6 ZW 1019,4 20
22.09.2017 15:00:00 18,5 6,8 7 4 WZW 1019,4 18
22.09.2017 14:00:00 16,9 8,3 7 4 N 1019,9 15
22.09.2017 13:00:00 15,8 8,8 7 4 WZW 1020,1 12
22.09.2017 12:00:00 13,6 9,5 11 6 WZW 1021,0 10
22.09.2017 11:00:00 10,6 8,4 7 4 N 1021,9 6
22.09.2017 10:00:00 7,7 7,4 5 3 - 1022,6 3,2
22.09.2017 09:00:00 5,4 5,2 4 2 - 1022,8 0,8
22.09.2017 08:00:00 4,4 4,1 0 0 N 1022,8 0,1
22.09.2017 07:00:00 4,3 3,9 4 2 WZW 1022,5 0,2
22.09.2017 06:00:00 4,2 3,6 4 2 ZW 1022,5 0,5
22.09.2017 05:00:00 4,6 4,0 4 2 ZO 1022,4 4,0
22.09.2017 04:00:00 4,9 4,3 4 2 Z 1022,5 8
22.09.2017 03:00:00 5,4 4,7 0 0 N 1022,5 8
22.09.2017 02:00:00 6,4 5,7 4 2 N 1022,4 10
22.09.2017 01:00:00 6,8 6,0 7 4 NO 1022,1 10
22.09.2017 00:00:00 7,2 6,0 4 2 NO 1021,9 15
21.09.2017 23:00:00 8,6 6,4 4 2 ONO 1021,6 20
21.09.2017 22:00:00 9,9 6,7 11 6 ONO 1021,2 20
21.09.2017 21:00:00 11,0 6,7 7 4 N 1020,8 25
21.09.2017 20:00:00 12,3 7,3 11 6 ONO 1020,1 27
21.09.2017 19:00:00 14,6 6,7 7 4 O 1019,6 27
21.09.2017 18:00:00 15,8 5,9 11 6 O 1019,3 30
21.09.2017 17:00:00 16,3 5,7 11 6 O 1019,3 30
21.09.2017 16:00:00 16,1 5,7 11 6 O 1019,6 30
21.09.2017 15:00:00 15,6 6,3 14 8 O 1020,2 27
21.09.2017 14:00:00 15,3 6,6 14 8 ONO 1020,7 25
21.09.2017 13:00:00 14,1 6,1 11 6 O 1021,6 20
21.09.2017 12:00:00 12,4 8,3 7 4 NO 1022,2 13
21.09.2017 11:00:00 8,8 7,7 4 2 N 1023,4 4,5
21.09.2017 10:00:00 5,7 5,3 4 2 ZW 1024,1 0,3
21.09.2017 09:00:00 4,8 4,4 4 2 W 1024,2 0,2
21.09.2017 08:00:00 3,4 3,0 4 2 NO 1024,4 0,1
21.09.2017 07:00:00 3,7 3,3 4 2 N 1024,1 0,1
21.09.2017 06:00:00 3,9 3,4 7 4 ZW 1024,1 1,1
21.09.2017 05:00:00 4,9 4,4 4 2 ZW 1024,2 1,8
21.09.2017 04:00:00 4,9 4,4 4 2 WZW 1024,3 4,0
21.09.2017 03:00:00 5,8 5,2 4 2 ZZW 1024,3 5
21.09.2017 02:00:00 6,3 5,6 4 2 ZW 1024,3 8
21.09.2017 01:00:00 6,5 5,5 4 2 WZW 1024,3 12
21.09.2017 00:00:00 8,1 6,2 4 2 N 1023,9 18
20.09.2017 23:00:00 9,1 6,7 7 4 ZW 1023,6 20
20.09.2017 22:00:00 9,4 6,7 7 4 W 1023,6 20
20.09.2017 21:00:00 10,0 6,9 11 6 WZW 1023,1 20
20.09.2017 20:00:00 10,7 6,7 11 6 ZW 1022,6 25
20.09.2017 19:00:00 11,6 6,4 7 4 ZW 1021,9 25
20.09.2017 18:00:00 12,5 8,0 11 6 ZW 1021,6 25
20.09.2017 17:00:00 13,2 7,1 14 8 WZW 1021,2 20
20.09.2017 16:00:00 14,4 4,6 7 4 W 1021,0 25
20.09.2017 15:00:00 13,0 5,5 4 2 WNW 1021,4 27
20.09.2017 14:00:00 13,5 6,0 7 4 NNW 1021,5 25

tt = temperatuur
td = dauwpunt
ff = windsnelheid
dd = windrichting
ppp = luchtdruk
vv = zicht

Weerstations in de omgeving